[[{"header":{"parameterUnit":"m.s-1","parameterCategory":1,"la1":30.2991,"la2":30.254,"lo1":-89.0895,"lo2":-89.0444,"dy":0.0017,"dx":0.0017,"nx":28,"ny":28,"refTime":"2024-11-27T09:00:00:Z","depth":0,"parameterNumber":2,"parameterNumberName":"U-component_of_WINDS"},"data":[0,0,0,0,0,0,0,0,0,0,0,0,0,0,0,0,0,0,0,0,0,0,0,0,0,0,0,0,0,0,0,0,0,0,0,0,0,0,0,0,0,0,0,0,0,0,0,0,0,0,0,0,0,0,0,0,0,0,-0.826,-0.826,0,-0.8271,-0.8271,-0.8271,-0.8228,-0.8227,-0.8225,-0.8224,-0.8236,-0.8238,-0.8239,0,0,0,0,0,0,0,0,0,0,0,0,0,-0.8204,-0.8205,-0.826,-0.826,-0.826,-0.8271,-0.8271,-0.8271,-0.8228,-0.8227,-0.8225,-0.8224,-0.8236,-0.8238,-0.824,0,0,0,0,0,0,0,0,0,0,0,0,0,-0.8223,-0.8205,-0.826,-0.824,-0.8239,-0.8271,-0.8271,-0.8271,-0.8228,-0.8227,-0.8225,-0.8223,-0.8235,-0.8238,-0.824,-0.8292,0,0,-0.8247,-0.8248,0,0,0,0,0,0,0,0,-0.8222,-0.8225,-0.8243,-0.8242,-0.824,-0.8246,-0.8255,-0.8278,-0.8229,-0.8232,-0.8224,-0.8222,-0.8241,-0.8243,-0.8249,-0.8292,-0.8293,-0.8247,-0.8248,-0.8249,-0.825,0,0,0,0,0,0,0,-0.822,-0.8224,-0.8264,-0.8243,-0.8241,-0.8231,-0.8232,-0.8259,-0.8247,-0.8232,-0.8229,-0.8231,-0.824,-0.8247,-0.8249,-0.8293,-0.8247,-0.8249,-0.825,-0.8251,-0.8379,-0.8381,0,0,0,0,0,0,-0.8222,-0.8223,-0.8264,-0.8265,-0.8226,-0.8234,-0.8234,-0.8246,-0.8247,-0.8245,-0.8232,-0.8229,-0.8244,-0.8247,-0.8249,-0.8311,-0.8249,-0.8251,-0.8253,-0.8377,-0.838,-0.8382,0,0,0,0,0,0,-0.8221,-0.8226,-0.8264,-0.8243,-0.8247,-0.8237,-0.825,-0.8247,-0.8254,-0.8247,-0.8245,-0.8242,-0.8243,-0.8246,-0.8281,-0.8311,-0.8252,-0.8254,-0.8375,-0.8378,-0.8381,-0.8434,0,0,0,0,0,0,-0.8219,-0.8226,-0.8245,-0.8244,-0.8248,-0.8296,-0.8252,-0.8249,-0.8258,-0.8253,-0.8255,-0.8254,-0.8241,-0.8278,-0.8284,-0.8313,-0.8256,-0.8372,-0.8376,-0.838,-0.843,-0.8438,-0.8446,0,0,0,0,0,-0.8217,-0.826,-0.8247,-0.8252,-0.8273,-0.8297,-0.83,-0.8285,-0.8261,-0.828,-0.8276,-0.8254,-0.8306,-0.8282,-0.8288,-0.8318,-0.8371,-0.8375,-0.838,-0.8426,-0.8437,-0.8446,0,0,0,0,0,0,-0.8266,-0.826,-0.8245,-0.8288,-0.8294,-0.829,-0.8315,-0.8296,-0.8309,-0.8305,-0.8285,-0.8286,-0.8325,-0.8324,-0.8298,-0.8368,-0.8334,-0.834,-0.8367,-0.8377,-0.8386,-0.8385,-0.8258,0,0,0,0,0,-0.8282,-0.8302,-0.8295,-0.8335,-0.8338,-0.8326,-0.8336,-0.8323,-0.8328,-0.8331,-0.8329,-0.8335,-0.8352,-0.8365,-0.838,-0.8428,-0.8429,-0.8452,-0.846,-0.8467,-0.8473,-0.8498,-0.8509,-0.8397,-0.8397,-0.8397,0,0,-0.8315,-0.8314,-0.8328,-0.8344,-0.8347,-0.8369,-0.8328,-0.8353,-0.8369,-0.8335,-0.8368,-0.8366,-0.8372,-0.8414,-0.8432,-0.8415,-0.8503,-0.8473,-0.8478,-0.848,-0.8504,-0.8515,-0.8524,-0.84,-0.84,-0.8399,0,0,-0.8387,-0.8387,-0.842,-0.8423,-0.8428,-0.8419,-0.8427,-0.8426,-0.8423,-0.8456,-0.8431,-0.8449,-0.848,-0.8485,-0.8492,-0.8563,-0.8544,-0.8569,-0.8612,-0.8638,-0.8646,-0.8654,-0.868,-0.869,-0.8574,-0.8574,-0.8575,0,-0.8428,-0.8459,-0.844,-0.8466,-0.8474,-0.8442,-0.8476,-0.848,-0.8489,-0.8496,-0.8476,-0.8513,-0.8515,-0.8557,-0.8575,-0.8581,-0.8589,-0.8569,-0.8646,-0.8654,-0.8661,-0.8686,-0.8696,-0.8578,-0.8577,-0.8577,-0.8577,0,-0.8509,-0.8531,-0.8557,-0.8566,-0.8577,-0.8607,-0.8592,-0.8605,-0.8591,-0.8584,-0.8618,-0.8618,-0.8633,-0.8642,-0.8629,-0.8683,-0.8672,-0.865,-0.8615,-0.8675,-0.8698,-0.8707,-0.8582,-0.8581,-0.858,-0.8579,0,0,-0.8614,-0.8611,-0.8621,-0.8625,-0.8626,-0.8643,-0.8671,-0.8685,-0.8697,-0.8704,-0.8727,-0.8753,-0.8732,-0.8739,-0.8726,-0.8748,-0.8805,-0.8722,-0.8722,-0.8739,-0.8865,-0.8883,-0.8895,-0.8791,-0.8793,-0.8794,-0.8865,0,-0.8685,-0.8733,-0.8715,-0.8764,-0.8784,-0.8754,-0.8778,-0.8782,-0.8776,-0.8792,-0.8786,-0.8805,-0.8775,-0.8779,-0.8799,-0.8794,-0.8831,-0.8788,-0.8814,-0.8815,-0.8815,-0.8907,-0.8926,-0.8993,-0.8874,-0.8875,-0.8877,0,-0.8775,-0.8785,-0.8836,-0.8833,-0.8841,-0.8863,-0.8874,-0.889,-0.8893,-0.8887,-0.8895,-0.8876,-0.8903,-0.8868,-0.8905,-0.8877,-0.8886,-0.8884,-0.8887,-0.889,-0.8851,-0.8913,-0.9014,-0.9024,-0.889,-0.8889,-0.8888,0,-0.8848,-0.8873,-0.8907,-0.8911,-0.8908,-0.8925,-0.8924,-0.8926,-0.8935,-0.8945,-0.8951,-0.8963,-0.8971,-0.8981,-0.8967,-0.8942,-0.9007,-0.897,-0.9003,-0.9004,-0.902,-0.902,-0.9124,-0.9023,-0.9023,-0.9023,-0.9023,0,-0.893,-0.8962,-0.894,-0.8961,-0.8996,-0.8975,-0.9011,-0.9007,-0.9008,-0.9028,-0.9001,-0.9021,-0.9,-0.9017,-0.9005,-0.9038,-0.9042,-0.9038,-0.9035,-0.9041,-0.9042,-0.9048,-0.9044,-0.9026,-0.9025,-0.9025,-0.9024,0,-0.9018,-0.9004,-0.9039,-0.9033,-0.9032,-0.9058,-0.9053,-0.9073,-0.9064,-0.9089,-0.9094,-0.9081,-0.91,-0.9086,-0.9104,-0.9097,-0.914,-0.913,-0.9139,-0.9137,-0.9172,-0.917,-0.9286,-0.93,-0.9189,-0.919,-0.9191,0,-0.9072,-0.9096,-0.9093,-0.9103,-0.9105,-0.9123,-0.9132,-0.9112,-0.9122,-0.9127,-0.9146,-0.9162,-0.9174,-0.9205,-0.9198,-0.9212,-0.9202,-0.9242,-0.9204,-0.921,-0.9204,-0.9204,-0.9206,-0.925,-0.9252,-0.9253,-0.9254,0,-0.917,-0.9162,-0.9175,-0.9187,-0.9198,-0.9206,-0.9212,-0.9223,-0.9202,-0.9216,-0.9234,-0.9243,-0.9261,-0.9278,-0.9289,-0.9289,-0.9269,-0.9265,-0.9274,-0.9282,-0.9286,-0.9285,-0.9162,-0.9263,-0.9262,-0.9262,-0.9261,-0.9261,-0.9244,-0.9264,-0.9264,-0.928,-0.9282,-0.9288,-0.9306,-0.9299,-0.9313,-0.9327,-0.9313,-0.9336,-0.9337,-0.935,-0.9352,-0.9369,-0.9353,-0.9366,-0.9369,-0.9373,-0.9378,-0.9282,-0.9371,-0.9371,-0.9371,-0.937,-0.937,0,-0.9341,-0.9339,-0.9354,-0.9363,-0.9376,-0.9353,-0.9359,-0.9371,-0.9391,-0.9394,-0.9405,-0.9426,-0.9442,-0.9435,-0.9449,-0.9464,-0.9455,-0.9468,-0.9468,-0.9468,-0.9392,-0.9383,-0.9475,-0.9475,-0.9475,-0.9475,-0.9475,-0.9475,-0.9394,-0.9426,-0.9417,-0.945,-0.9448,-0.9469,-0.9474,-0.948,-0.9482,-0.9506,-0.9519,-0.9514,-0.9512,-0.9526,-0.9539,-0.9536,-0.9543,-0.956,-0.9555,-0.9484,-0.9474,-0.9464,-0.9456,-0.9562,-0.9562,-0.963,-0.9631,-0.9631]},{"header":{"parameterUnit":"m.s-1","parameterCategory":1,"la1":30.2991,"la2":30.254,"lo1":-89.0895,"lo2":-89.0444,"dy":0.0017,"dx":0.0017,"nx":28,"ny":28,"refTime":"2024-11-27T09:00:00:Z","depth":0,"parameterNumber":3,"parameterNumberName":"V-component_of_WINDS"},"data":[0,0,0,0,0,0,0,0,0,0,0,0,0,0,0,0,0,0,0,0,0,0,0,0,0,0,0,0,0,0,0,0,0,0,0,0,0,0,0,0,0,0,0,0,0,0,0,0,0,0,0,0,0,0,0,0,0,0,-7.4659,-7.466,0,-7.4768,-7.4769,-7.477,-7.47,-7.4696,-7.4693,-7.469,-7.4795,-7.4801,-7.4807,0,0,0,0,0,0,0,0,0,0,0,0,0,-7.4385,-7.439,-7.4659,-7.466,-7.4662,-7.4768,-7.4769,-7.4771,-7.47,-7.4696,-7.4692,-7.4689,-7.4793,-7.48,-7.4807,0,0,0,0,0,0,0,0,0,0,0,0,0,-7.45,-7.4392,-7.4659,-7.464,-7.4639,-7.4767,-7.4769,-7.4771,-7.4701,-7.4696,-7.4691,-7.4687,-7.4791,-7.48,-7.4808,-7.496,0,0,-7.4835,-7.4839,0,0,0,0,0,0,0,0,-7.4493,-7.451,-7.4641,-7.4641,-7.4641,-7.4715,-7.4711,-7.4834,-7.4702,-7.4677,-7.469,-7.4684,-7.4772,-7.4782,-7.4813,-7.4965,-7.4969,-7.4836,-7.4841,-7.4845,-7.4847,0,0,0,0,0,0,0,-7.4485,-7.4505,-7.4702,-7.4643,-7.4643,-7.4624,-7.4635,-7.4734,-7.4751,-7.4679,-7.4674,-7.4688,-7.4771,-7.4805,-7.4815,-7.4971,-7.4835,-7.4843,-7.4849,-7.4852,-7.5251,-7.5256,0,0,0,0,0,0,-7.448,-7.4498,-7.4698,-7.4705,-7.4554,-7.4633,-7.4645,-7.4696,-7.4749,-7.4753,-7.4693,-7.4685,-7.4792,-7.4805,-7.4818,-7.4999,-7.4845,-7.4853,-7.4858,-7.5245,-7.5252,-7.5258,0,0,0,0,0,0,-7.4474,-7.4498,-7.4694,-7.4601,-7.4624,-7.4643,-7.4701,-7.4701,-7.4735,-7.476,-7.4761,-7.4724,-7.4789,-7.4806,-7.4925,-7.5001,-7.4857,-7.4865,-7.5239,-7.5247,-7.5255,-7.5361,0,0,0,0,0,0,-7.4467,-7.4497,-7.4556,-7.4603,-7.4629,-7.4801,-7.4706,-7.4707,-7.4751,-7.4742,-7.479,-7.4793,-7.4786,-7.4913,-7.4934,-7.5011,-7.4872,-7.5232,-7.5243,-7.5252,-7.5351,-7.5372,-7.539,0,0,0,0,0,-7.4457,-7.458,-7.4559,-7.4584,-7.4704,-7.4806,-7.4821,-7.4813,-7.4757,-7.4816,-7.4832,-7.4792,-7.499,-7.4925,-7.4949,-7.5029,-7.5227,-7.524,-7.5251,-7.5342,-7.5368,-7.5389,0,0,0,0,0,0,-7.454,-7.4586,-7.4563,-7.4706,-7.4753,-7.4794,-7.4867,-7.484,-7.4902,-7.4891,-7.4875,-7.4887,-7.5012,-7.5032,-7.496,-7.5178,-7.51,-7.5117,-7.516,-7.5185,-7.5204,-7.5196,-7.4879,0,0,0,0,0,-7.4575,-7.4656,-7.4691,-7.4813,-7.4838,-7.4849,-7.4893,-7.4883,-7.493,-7.4949,-7.4973,-7.5019,-7.5091,-7.5139,-7.5207,-7.5353,-7.5362,-7.542,-7.544,-7.5456,-7.547,-7.5548,-7.5574,-7.5297,-7.5297,-7.5297,0,0,-7.4647,-7.4683,-7.4734,-7.483,-7.4866,-7.4948,-7.4866,-7.4956,-7.5017,-7.4962,-7.5076,-7.5096,-7.5146,-7.5279,-7.5339,-7.53,-7.5549,-7.5471,-7.5483,-7.549,-7.5563,-7.559,-7.5613,-7.5305,-7.5304,-7.5302,0,0,-7.4822,-7.4858,-7.4963,-7.5001,-7.5056,-7.5062,-7.5088,-7.5134,-7.5145,-7.5261,-7.5221,-7.5291,-7.5417,-7.5454,-7.5489,-7.5678,-7.5643,-7.57,-7.5801,-7.5878,-7.59,-7.5919,-7.5986,-7.601,-7.5715,-7.5716,-7.5716,0,-7.4905,-7.5029,-7.502,-7.5114,-7.5157,-7.5113,-7.5219,-7.5255,-7.5329,-7.5359,-7.5315,-7.5471,-7.5501,-7.5643,-7.5689,-7.5719,-7.5746,-7.5695,-7.5898,-7.5917,-7.5935,-7.5998,-7.6023,-7.5722,-7.5721,-7.5721,-7.572,0,-7.5128,-7.5215,-7.5293,-7.5368,-7.5419,-7.5519,-7.5523,-7.5576,-7.5561,-7.5572,-7.5689,-7.5724,-7.5799,-7.5831,-7.5817,-7.5971,-7.5945,-7.59,-7.582,-7.5968,-7.6027,-7.6051,-7.5732,-7.5729,-7.5727,-7.5726,0,0,-7.5357,-7.5426,-7.5455,-7.5489,-7.5546,-7.5612,-7.5709,-7.5784,-7.5829,-7.5881,-7.5961,-7.6068,-7.6027,-7.6067,-7.6056,-7.6124,-7.627,-7.607,-7.6071,-7.6105,-7.6441,-7.6474,-7.6502,-7.6248,-7.6253,-7.6256,-7.6436,0,-7.5534,-7.5706,-7.57,-7.5859,-7.5938,-7.5898,-7.5982,-7.6026,-7.6038,-7.6106,-7.6118,-7.6195,-7.6135,-7.6159,-7.6224,-7.6239,-7.6337,-7.6226,-7.632,-7.6324,-7.6308,-7.6533,-7.6569,-7.6737,-7.6459,-7.6463,-7.6466,0,-7.5764,-7.5827,-7.5994,-7.604,-7.6073,-7.6149,-7.6217,-7.6283,-7.6331,-7.6335,-7.6381,-7.6359,-7.6455,-7.6374,-7.6505,-7.6429,-7.6467,-7.6481,-7.6487,-7.6494,-7.6403,-7.6546,-7.679,-7.6815,-7.6503,-7.65,-7.6497,0,-7.5914,-7.6039,-7.6156,-7.6185,-7.6243,-7.6297,-7.6323,-7.6366,-7.6411,-7.647,-7.6499,-7.6567,-7.6605,-7.6657,-7.6654,-7.6595,-7.6787,-7.6705,-7.6791,-7.6791,-7.6833,-7.683,-7.7086,-7.6859,-7.6858,-7.6858,-7.6857,0,-7.6112,-7.6216,-7.6224,-7.6295,-7.641,-7.6402,-7.6515,-7.6535,-7.6574,-7.6647,-7.6616,-7.6684,-7.6676,-7.6745,-7.6743,-7.6851,-7.6868,-7.6873,-7.6871,-7.6876,-7.6875,-7.69,-7.6888,-7.6865,-7.6863,-7.6862,-7.6861,0,-7.6298,-7.6308,-7.6432,-7.6477,-7.649,-7.6573,-7.6609,-7.6676,-7.6686,-7.6779,-7.68,-7.6816,-7.6895,-7.6898,-7.6988,-7.6986,-7.7118,-7.7103,-7.7103,-7.71,-7.7186,-7.7177,-7.7465,-7.7502,-7.7252,-7.7255,-7.7257,0,-7.6424,-7.6503,-7.6557,-7.6605,-7.6635,-7.6712,-7.6759,-7.6754,-7.6803,-7.6864,-7.6923,-7.7,-7.7061,-7.7189,-7.7207,-7.7275,-7.7261,-7.7358,-7.7271,-7.7273,-7.7262,-7.7257,-7.7264,-7.7374,-7.7377,-7.7379,-7.7381,0,-7.6646,-7.6647,-7.6717,-7.6789,-7.6846,-7.6901,-7.6953,-7.6993,-7.6994,-7.7051,-7.7133,-7.718,-7.7274,-7.7349,-7.7416,-7.744,-7.7411,-7.7408,-7.7432,-7.7437,-7.7433,-7.7435,-7.7148,-7.7401,-7.7399,-7.7398,-7.7397,-7.7396,-7.6805,-7.6874,-7.6923,-7.7001,-7.704,-7.7089,-7.7154,-7.7173,-7.7242,-7.7319,-7.7311,-7.7402,-7.7447,-7.7534,-7.7564,-7.7633,-7.7599,-7.7633,-7.7642,-7.765,-7.7659,-7.7423,-7.7645,-7.7644,-7.7644,-7.7643,-7.7643,0,-7.7025,-7.7055,-7.7127,-7.7201,-7.7263,-7.7232,-7.7287,-7.734,-7.7421,-7.7467,-7.7528,-7.7622,-7.7695,-7.7719,-7.779,-7.7841,-7.7829,-7.786,-7.7855,-7.7861,-7.7685,-7.7658,-7.7868,-7.7868,-7.7868,-7.7868,-7.7868,-7.7868,-7.7146,-7.7261,-7.7268,-7.74,-7.7428,-7.7519,-7.7553,-7.7597,-7.7634,-7.7741,-7.7802,-7.7818,-7.7855,-7.7928,-7.7994,-7.7998,-7.8025,-7.8062,-7.8061,-7.7896,-7.7874,-7.7852,-7.7826,-7.8068,-7.8068,-7.823,-7.8232,-7.8233]}]]